| time (UTC) | temp F | wind direction | speed MPH | gust MPH | rain 1hr in | rain 24hr in | rain mn in | humidity % | barometer mb |
| 20260507150044 | 63 | 117 | 3.0 | 7.0 | 0.00 | 0.18 | 0.00 | 42 | 1012.1 |
| 20260507144547 | 65 | 290 | 1.0 | 9.0 | 0.00 | 0.23 | 0.00 | 35 | 1011.9 |
| 20260507143048 | 63 | 284 | 3.0 | 8.0 | 0.00 | 0.23 | 0.00 | 38 | 1011.9 |
| 20260507141716 | 62 | 216 | 2.0 | 9.0 | 0.00 | 0.23 | 0.00 | 39 | 1012.2 |
| 20260507141553 | 62 | 216 | 2.0 | 9.0 | 0.00 | 0.23 | 0.00 | 39 | 1012.2 |
| 20260507140051 | 62 | 257 | 4.0 | 10.0 | 0.00 | 0.23 | 0.00 | 40 | 1012.3 |
| 20260507134552 | 63 | 307 | 3.0 | 9.0 | 0.00 | 0.28 | 0.00 | 40 | 1012.5 |
| 20260507133055 | 63 | 237 | 3.0 | 9.0 | 0.00 | 0.28 | 0.00 | 41 | 1012.6 |
| 20260507131559 | 64 | 319 | 3.0 | 10.0 | 0.00 | 0.28 | 0.00 | 43 | 1012.8 |
| 20260507130104 | 64 | 324 | 3.0 | 10.0 | 0.00 | 0.28 | 0.00 | 44 | 1012.8 |
| 20260507124553 | 63 | 207 | 3.0 | 11.0 | 0.00 | 0.28 | 0.00 | 44 | 1012.9 |
| 20260507123050 | 62 | 230 | 4.0 | 12.0 | 0.00 | 0.28 | 0.00 | 46 | 1013.0 |
| 20260507121605 | 61 | 205 | 5.0 | 11.0 | 0.00 | 0.28 | 0.00 | 46 | 1013.2 |
| 20260507120057 | 61 | 267 | 4.0 | 11.0 | 0.00 | 0.28 | 0.00 | 47 | 1013.3 |
| 20260507114600 | 61 | 0 | 4.0 | 11.0 | 0.00 | 0.28 | 0.00 | 44 | 1013.5 |
| 20260507113052 | 60 | 299 | 3.0 | 11.0 | 0.00 | 0.28 | 0.00 | 45 | 1013.8 |
| 20260507111552 | 60 | 275 | 3.0 | 11.0 | 0.00 | 0.28 | 0.00 | 47 | 1014.0 |
| 20260507110053 | 60 | 282 | 3.0 | 7.0 | 0.00 | 0.28 | 0.00 | 50 | 1014.2 |
| 20260507104547 | 59 | 299 | 1.0 | 7.0 | 0.00 | 0.28 | 0.00 | 51 | 1014.4 |
| 20260507103047 | 57 | 239 | 2.0 | 7.0 | 0.00 | 0.28 | 0.00 | 50 | 1014.3 |
| 20260507101600 | 56 | 313 | 2.0 | 8.0 | 0.00 | 0.28 | 0.00 | 52 | 1014.7 |
| 20260507100051 | 56 | 191 | 2.0 | 8.0 | 0.00 | 0.28 | 0.00 | 52 | 1014.7 |
| 20260507094549 | 55 | 321 | 2.0 | 8.0 | 0.00 | 0.28 | 0.00 | 56 | 1014.9 |
| 20260507093053 | 54 | 236 | 2.0 | 9.0 | 0.00 | 0.28 | 0.00 | 57 | 1015.2 |
| 20260507091552 | 53 | 261 | 2.0 | 8.0 | 0.00 | 0.28 | 0.00 | 63 | 1015.2 |
| 20260507090044 | 51 | 240 | 0.0 | 4.0 | 0.00 | 0.28 | 0.00 | 75 | 1015.2 |
| 20260507084555 | 50 | 317 | 2.0 | 7.0 | 0.00 | 0.28 | 0.00 | 78 | 1015.2 |
| 20260507083047 | 48 | 0 | 0.0 | 3.0 | 0.00 | 0.28 | 0.00 | 86 | 1015.2 |
| 20260507081550 | 46 | 0 | 0.0 | 3.0 | 0.00 | 0.28 | 0.00 | 90 | 1015.2 |
| 20260507080052 | 45 | 0 | 0.0 | 0.0 | 0.00 | 0.28 | 0.00 | 91 | 1015.5 |
| 20260507074605 | 44 | 0 | 0.0 | 0.0 | 0.00 | 0.28 | 0.00 | 92 | 1015.5 |
| 20260507073049 | 44 | 0 | 0.0 | 0.0 | 0.00 | 0.28 | 0.00 | 92 | 1015.6 |
| 20260507071546 | 44 | 0 | 0.0 | 3.0 | 0.00 | 0.28 | 0.00 | 92 | 1015.5 |
| 20260507070055 | 43 | 0 | 0.0 | 2.0 | 0.00 | 0.28 | 0.00 | 92 | 1015.4 |
| 20260507064550 | 43 | 40 | 0.0 | 4.0 | 0.00 | 0.28 | 0.00 | 92 | 1015.4 |
| 20260507063047 | 43 | 0 | 0.0 | 3.0 | 0.00 | 0.28 | 0.00 | 92 | 1015.5 |
| 20260507061548 | 43 | 0 | 0.0 | 0.0 | 0.00 | 0.28 | 0.00 | 92 | 1015.5 |
| 20260507060048 | 43 | 0 | 0.0 | 0.0 | 0.00 | 0.28 | 0.00 | 92 | 1015.6 |
| 20260507054621 | 43 | 0 | 0.0 | 0.0 | 0.00 | 0.28 | 0.00 | 92 | 1015.5 |
| 20260507053051 | 44 | 0 | 0.0 | 2.0 | 0.00 | 0.28 | 0.00 | 92 | 1015.5 |
| 20260507051553 | 44 | 94 | 0.0 | 2.0 | 0.00 | 0.28 | 0.00 | 92 | 1015.4 |
| 20260507050046 | 44 | 0 | 0.0 | 1.0 | 0.00 | 0.28 | 0.00 | 92 | 1015.3 |
| 20260507044552 | 44 | 0 | 0.0 | 1.0 | 0.00 | 0.28 | 0.00 | 92 | 1015.2 |
| 20260507043053 | 44 | 0 | 0.0 | 0.0 | 0.00 | 0.28 | 0.00 | 92 | 1015.2 |
| 20260507041600 | 44 | 0 | 0.0 | 0.0 | 0.00 | 0.28 | 0.00 | 92 | 1015.2 |
| 20260507040047 | 45 | 0 | 0.0 | 0.0 | 0.00 | 0.28 | 0.00 | 92 | 1015.0 |
| 20260507034556 | 45 | 0 | 0.0 | 1.0 | 0.00 | 0.28 | 0.00 | 92 | 1015.0 |
| 20260507033100 | 45 | 0 | 0.0 | 1.0 | 0.00 | 0.28 | 0.00 | 92 | 1015.1 |
| 20260507031601 | 45 | 0 | 0.0 | 1.0 | 0.00 | 0.28 | 0.00 | 92 | 1015.1 |
| 20260507030054 | 45 | 0 | 0.0 | 0.0 | 0.00 | 0.28 | 0.00 | 92 | 1015.2 |
| 20260507024552 | 44 | 0 | 0.0 | 1.0 | 0.00 | 0.28 | 0.00 | 91 | 1015.2 |
| 20260507023101 | 44 | 0 | 0.0 | 1.0 | 0.00 | 0.28 | 0.00 | 91 | 1015.3 |
| 20260507021549 | 44 | 0 | 0.0 | 1.0 | 0.00 | 0.28 | 0.00 | 91 | 1015.2 |
| 20260507020056 | 44 | 0 | 0.0 | 0.0 | 0.00 | 0.28 | 0.00 | 91 | 1015.1 |
| 20260507014600 | 44 | 0 | 0.0 | 2.0 | 0.00 | 0.28 | 0.00 | 91 | 1015.2 |
| 20260507013051 | 44 | 0 | 0.0 | 2.0 | 0.00 | 0.27 | 0.00 | 91 | 1015.2 |
| 20260507011551 | 44 | 0 | 0.0 | 3.0 | 0.00 | 0.27 | 0.00 | 91 | 1015.1 |
| 20260507010048 | 44 | 0 | 0.0 | 3.0 | 0.00 | 0.27 | 0.00 | 91 | 1015.2 |
| 20260507004549 | 44 | 0 | 0.0 | 1.0 | 0.00 | 0.27 | 0.00 | 91 | 1015.4 |
| 20260507003050 | 45 | 0 | 0.0 | 1.0 | 0.00 | 0.27 | 0.00 | 91 | 1015.5 |
| 20260507001602 | 44 | 0 | 0.0 | 2.0 | 0.00 | 0.27 | 0.00 | 91 | 1015.5 |
| 20260507000050 | 45 | 0 | 0.0 | 2.0 | 0.00 | 0.27 | 0.00 | 90 | 1015.6 |
| 20260506234548 | 45 | 0 | 0.0 | 2.0 | 0.00 | 0.27 | 0.00 | 90 | 1015.6 |
| 20260506233107 | 45 | 0 | 0.0 | 1.0 | 0.00 | 0.27 | 0.00 | 90 | 1015.6 |
| 20260506231555 | 45 | 0 | 0.0 | 0.0 | 0.00 | 0.27 | 0.00 | 90 | 1015.5 |
| 20260506230049 | 45 | 0 | 0.0 | 3.0 | 0.00 | 0.27 | 0.00 | 90 | 1015.5 |
| 20260506224548 | 45 | 67 | 0.0 | 2.0 | 0.00 | 0.27 | 0.00 | 90 | 1015.5 |
| 20260506223048 | 45 | 0 | 0.0 | 1.0 | 0.00 | 0.27 | 0.00 | 90 | 1015.3 |
| 20260506221548 | 45 | 0 | 0.0 | 1.0 | 0.00 | 0.27 | 0.00 | 90 | 1015.2 |
| 20260506220049 | 45 | 138 | 0.0 | 2.0 | 0.00 | 0.27 | 0.00 | 90 | 1015.3 |
| 20260506214553 | 45 | 0 | 0.0 | 0.0 | 0.00 | 0.27 | 0.27 | 90 | 1015.2 |
| 20260506213110 | 46 | 0 | 0.0 | 0.0 | 0.00 | 0.27 | 0.27 | 89 | 1015.1 |
| 20260506211552 | 46 | 0 | 0.0 | 0.0 | 0.00 | 0.27 | 0.27 | 89 | 1015.0 |
| 20260506210057 | 46 | 0 | 0.0 | 0.0 | 0.00 | 0.27 | 0.27 | 89 | 1015.0 |
| 20260506204556 | 46 | 0 | 0.0 | 2.0 | 0.00 | 0.27 | 0.27 | 89 | 1014.9 |
| 20260506203052 | 46 | 55 | 0.0 | 2.0 | 0.00 | 0.27 | 0.27 | 89 | 1014.8 |
| 20260506201546 | 46 | 0 | 0.0 | 4.0 | 0.00 | 0.27 | 0.27 | 88 | 1014.8 |
| 20260506200057 | 46 | 0 | 0.0 | 3.0 | 0.00 | 0.27 | 0.27 | 88 | 1014.6 |
| 20260506194625 | 46 | 54 | 1.0 | 4.0 | 0.00 | 0.27 | 0.27 | 87 | 1014.2 |
| 20260506193104 | 46 | 0 | 0.0 | 3.0 | 0.00 | 0.27 | 0.27 | 87 | 1014.0 |
| 20260506191556 | 47 | 0 | 0.0 | 4.0 | 0.00 | 0.27 | 0.27 | 87 | 1014.1 |
| 20260506190057 | 47 | 109 | 0.0 | 4.0 | 0.00 | 0.27 | 0.27 | 87 | 1013.9 |
| 20260506184554 | 47 | 0 | 0.0 | 3.0 | 0.00 | 0.27 | 0.27 | 87 | 1013.7 |
| 20260506183052 | 47 | 152 | 0.0 | 4.0 | 0.00 | 0.27 | 0.27 | 86 | 1013.6 |
| 20260506181555 | 47 | 0 | 0.0 | 5.0 | 0.11 | 0.27 | 0.27 | 86 | 1013.6 |
| 20260506180059 | 48 | 0 | 2.0 | 5.0 | 0.13 | 0.27 | 0.27 | 86 | 1013.5 |
| 20260506174550 | 48 | 24 | 0.0 | 1.0 | 0.17 | 0.27 | 0.27 | 86 | 1013.4 |
| 20260506173056 | 49 | 0 | 0.0 | 6.0 | 0.17 | 0.26 | 0.26 | 84 | 1013.3 |
| 20260506171556 | 50 | 0 | 0.0 | 1.0 | 0.06 | 0.15 | 0.15 | 83 | 1013.1 |
| 20260506164545 | 52 | 0 | 0.0 | 3.0 | 0.00 | 0.11 | 0.10 | 78 | 1012.5 |
| 20260506163106 | 52 | 0 | 0.0 | 4.0 | 0.00 | 0.10 | 0.09 | 78 | 1012.4 |
| 20260506161549 | 52 | 0 | 0.0 | 4.0 | 0.00 | 0.10 | 0.09 | 76 | 1012.4 |
| 20260506160050 | 52 | 330 | 0.0 | 2.0 | 0.00 | 0.10 | 0.09 | 79 | 1012.3 |
| 20260506154608 | 51 | 282 | 0.0 | 2.0 | 0.00 | 0.11 | 0.09 | 81 | 1012.5 |
| 20260506153059 | 51 | 0 | 0.0 | 3.0 | 0.02 | 0.11 | 0.09 | 85 | 1012.5 |
| 20260506151552 | 50 | 0 | 1.0 | 4.0 | 0.03 | 0.11 | 0.09 | 84 | 1012.5 |